Regional Weather Roundup
Issued by NWS Kansas City/Pleasant Hill, MO

Home | Current Version | Previous Version | Graphics & Text | Print | Product List | Glossary Off
Versions: 1 2 3 4 5 6 7 8 9 10 11 12 13 14 15 16 17 18 19 20 21 22 23 24 25 26 27 28 29 30 31 32 33 34 35 36 37 38 39 40 41 42 43 44 45 46 47 48 49 50

000
ASUS43 KEAX 290004
RWREAX

WEATHER ROUNDUP FOR EASTERN KANSAS AND NORTHWEST MISSOURI
NATIONAL WEATHER SERVICE KANSAS CITY/PLEASANT HILL MO
700 PM CDT MON JUL 28 2014

KSZ040-057-103>105-MOZ028-029-037-043-290100-
...KANSAS CITY METROPOLITAN AREA...

CITY           SKY/WX    TMP DP  RH WIND       PRES   REMARKS
K.C. INTL      MOSUNNY   74  60  61 N7        30.16F
6HR MIN TEMP:  74; 6HR MAX TEMP:  80;

K.C. DOWNTOWN  MOSUNNY   79  59  50 N9        30.14F
6HR MIN TEMP:  76; 6HR MAX TEMP:  82;

LEES SUMMIT    SUNNY     78  56  46 N9        30.15F
6HR MIN TEMP:  76; 6HR MAX TEMP:  81;

OLATHE - IXD   MOSUNNY   79  57  46 N13       30.16F
6HR MIN TEMP:  76; 6HR MAX TEMP:  82;

OLATHE - OJC   MOSUNNY   79  57  46 N8        30.14F
6HR MIN TEMP:  76; 6HR MAX TEMP:  83;

LAWRENCE       SUNNY     80  57  45 N10       30.15F

$$

MOZ001>008-011>017-020>025-030>033-038>040-044>046-053-054-290100-
...NORTHERN AND CENTRAL MISSOURI...

CITY           SKY/WX    TMP DP  RH WIND       PRES   REMARKS
ST. JOSEPH     SUNNY     76  60  57 NW6       30.16F
6HR MIN TEMP:  73; 6HR MAX TEMP:  79;

MOSBY          CLEAR     77  57  50 NW5       30.14F
WHITEMAN AFB   MOSUNNY   76  49  39 N10       30.13F
6HR MIN TEMP:  76; 6HR MAX TEMP:  81;

CLINTON        SUNNY     79  63  57 N9        30.13F
SEDALIA        SUNNY     77  58  51 N10       30.14F
6HR MIN TEMP:  76; 6HR MAX TEMP:  82;

WARSAW         NOT AVBL
MARSHALL       MOSUNNY   79  59  50 N7        30.14F
CHILLICOTHE      N/A     79  55  43 N5        30.15F
6HR MIN TEMP:  76; 6HR MAX TEMP:  81;

KIRKSVILLE     MOSUNNY   74  55  51 N10       30.16F
6HR MIN TEMP:  74; 6HR MAX TEMP:  78;


$$

MOZ041-047>049-056>058-063>065-088>090-097-290100-
...EASTERN AND SOUTHERN MISSOURI...

CITY           SKY/WX    TMP DP  RH WIND       PRES   REMARKS
ST. LOUIS INTL PTSUNNY   73  56  54 N9        30.11S
6HR MIN TEMP:  73; 6HR MAX TEMP:  81;

SPIRIT OF STL  PTSUNNY   74  53  48 N15G21    30.10S
COLUMBIA       SUNNY     76  54  46 N12       30.14S
JEFFERSON CITY MOSUNNY   76  55  48 N10       30.12R
ROLLA          MOSUNNY   76  55  48 N14G22    30.10F
LEBANON        SUNNY     79  55  44 N10       30.12F
OSAGE BEACH    MOSUNNY   79  55  44 N7        30.11F
SPRINGFIELD    SUNNY     80  55  42 N13       30.12F
BRANSON        MOSUNNY   82  54  36 N14       30.12S
NEVADA         SUNNY     79  59  50 N8        30.14F
JOPLIN         SUNNY     82  56  40 N13G18    30.13S
WEST PLAINS    MOSUNNY   80  56  43 NW7       30.09F
MALDEN         SUNNY     82  63  51 N9        30.04R

$$

IAZ060-094-KSZ022-034>040-054-083-096-NEZ052-066-093-290100-
...KANSAS...SOUTHEAST NEBRASKA AND IOWA...

CITY           SKY/WX    TMP DP  RH WIND       PRES   REMARKS
TOPEKA         SUNNY     82  57  42 N12       30.16S
6HR MIN TEMP:  80; 6HR MAX TEMP:  86;

MANHATTAN      SUNNY     83  55  38 N10       30.16F
EMPORIA        SUNNY     83  52  34 N9        30.15F
CHANUTE        SUNNY     83  56  39 N9        30.13F
WICHITA        MOSUNNY   86  57  37 N8        30.15F
OMAHA          MOSUNNY   78  54  43 NW9       30.17F
LINCOLN        SUNNY     78  51  38 N14       30.21F
FALLS CITY     SUNNY     77  54  44 N8        30.16F
LAMONI         PTSUNNY   74  57  55 N6        30.15F
DES MOINES     PTSUNNY   73  57  57 NW5       30.15F

$$



USA.gov is the U.S. government's official web portal to all federal, state and local government web resources and services.